Hourly Data Report for August 08, 2006

TORONTO CITY
ONTARIO

43°40'00.000" N
79°24'00.000" W
112.50 m
6158355
71508
XTO

Download Data

Hourly Data (August 2006)
Hourly Data Report for August 8, 2006
TIME
LST
Temp Definition
°C
Dew Point Definition
°C
Rel Hum Definition
%
Precip. Amount Definition
mm

Wind Dir Definition
10's deg

Wind Spd Definition
km/h
Visibility Definition
km
Stn Press Definition
kPa
Hmdx Definition


Wind Chill Definition


Weather Definition


00:00 20.6 15.3 72   LegendMM LegendMM   100.41 25   LegendNANA
01:00 20.1 15.8 76   LegendMM LegendMM   100.42 25   LegendNANA
02:00 19.6 15.9 79   LegendMM LegendMM   100.45     LegendNANA
03:00 19.6 15.8 79   LegendMM LegendMM   100.53     LegendNANA
04:00 18.9 15.0 78   LegendMM LegendMM   100.57     LegendNANA
05:00 18.1 14.7 81   LegendMM LegendMM   100.65     LegendNANA
06:00 18.0 14.8 82   LegendMM LegendMM   100.72     LegendNANA
07:00 18.9 14.8 77   LegendMM LegendMM   100.77     LegendNANA
08:00 19.8 14.1 70   LegendMM LegendMM   100.80     LegendNANA
09:00 20.8 13.3 62   LegendMM LegendMM   100.80     LegendNANA
10:00 21.8 11.5 52   LegendMM LegendMM   100.83     LegendNANA
11:00 23.2 8.6 39   LegendMM LegendMM   100.83     LegendNANA
12:00 24.2 6.9 33   LegendMM LegendMM   100.81     LegendNANA
13:00 24.5 7.5 34   LegendMM LegendMM   100.81 25   LegendNANA
14:00 24.8 6.7 31   LegendMM LegendMM   100.79 25   LegendNANA
15:00 25.4 6.4 30   LegendMM LegendMM   100.73 25   LegendNANA
16:00 23.5 11.7 47   LegendMM LegendMM   100.72 26   LegendNANA
17:00 23.1 13.0 53   LegendMM LegendMM   100.72 26   LegendNANA
18:00 22.3 12.8 55   LegendMM LegendMM   100.71 25   LegendNANA
19:00 21.3 13.1 60   LegendMM LegendMM   100.73     LegendNANA
20:00 20.8 12.2 58   LegendMM LegendMM   100.75     LegendNANA
21:00 19.9 11.7 59   LegendMM LegendMM   100.78     LegendNANA
22:00 20.1 12.6 62   LegendMM LegendMM   100.77     LegendNANA
23:00 19.1 12.6 66   LegendMM LegendMM   100.76     LegendNANA

Notes on Data Quality.

Legend

  • E = Estimated
  • M = Missing
  • NA = Not Available*
  • [empty] = Indicates an unobserved value
Date modified: